GFSNGP_sfc_rhum_234.txt.gz
RH
87 70 70 83 89 76 94 94 85 50 39 28 23 25 28 28 33 40 44 45 36 37 44 46 52 60 64 71 68 63 61 59 67 65 63 61 65 66 66 66 66 66 69 68
80 63 54 51 42 54 74 81 75 61 60 37 24 21 22 23 24 27 39 44 46 39 39 42 48 54 62 66 64 59 58 63 59 60 60 64 68 70 70 70 68 68 69 69
72 47 57 74 59 46 46 44 52 66 48 57 48 38 30 29 28 27 26 39 44 44 42 40 43 48 58 60 59 58 61 55 56 58 61 67 66 66 71 73 71 72 70 69
76 64 89 43 22 24 37 41 45 40 38 36 51 46 44 38 32 27 24 26 36 39 40 39 40 44 52 54 56 58 55 51 53 56 60 63 65 68 77 74 75 82 77 76
82 64 46 34 24 26 30 37 29 30 32 30 26 33 35 31 31 30 27 25 24 28 34 36 39 43 49 52 51 54 52 52 53 56 63 67 78 80 76 76 80 77 73 80
77 84 64 28 17 18 21 41 18 17 19 19 18 37 29 28 29 28 27 26 23 24 32 36 37 41 47 51 52 51 52 56 57 64 69 73 83 78 76 80 74 68 75 75
86 83 53 27 20 18 46 40 20 20 19 19 27 26 26 31 35 31 30 24 23 23 27 33 34 39 46 50 51 49 54 61 67 70 76 80 80 77 79 81 78 82 77 75
83 86 86 26 23 34 28 25 23 24 22 27 25 24 21 31 35 32 32 28 24 27 27 30 32 37 41 46 45 46 56 66 71 74 71 83 82 80 78 81 87 85 79 81
55 61 39 27 26 23 24 27 26 24 26 27 30 30 36 38 35 32 31 31 27 27 29 31 32 35 38 41 40 52 61 66 70 73 80 77 81 85 84 85 88 89 89 92
53 38 32 29 25 26 23 24 24 25 35 43 42 34 32 33 32 28 27 30 32 31 30 36 34 36 34 37 41 52 65 74 82 80 86 79 80 83 88 92 93 96 99 100
51 37 31 27 25 25 25 26 25 25 27 27 27 29 30 31 30 28 28 26 31 34 34 34 37 37 34 36 50 56 64 72 79 78 84 87 82 85 92 95 95 100 100 100
63 35 35 32 27 26 28 27 27 27 30 29 28 31 34 33 28 27 31 31 29 33 34 33 38 40 35 46 51 56 66 72 74 85 91 90 93 100 98 99 95 96 97 99
41 31 31 30 28 25 27 27 27 30 29 29 30 31 34 32 32 40 42 43 39 34 34 34 39 40 38 53 55 59 65 68 77 86 88 92 96 98 100 100 96 96 96 98
35 39 46 38 40 31 30 28 32 30 30 31 32 36 40 42 42 52 58 57 53 42 40 42 47 48 56 61 57 63 71 78 80 87 91 95 96 100 99 99 100 100 99 98
34 32 36 35 33 32 29 29 32 32 31 29 27 31 36 58 57 54 61 73 97 100 96 89 85 98 93 83 86 87 81 84 87 93 95 94 96 98 98 98 98 99 99 99
40 40 38 40 37 34 33 33 35 34 33 33 33 37 53 67 67 65 56 54 68 67 97 98 100 100 98 100 99 92 86 84 85 89 94 93 94 95 94 92 91 93 94 94
68 73 64 57 51 46 40 36 37 37 40 40 48 59 72 81 76 81 78 65 69 97 100 100 100 100 100 90 80 84 90 90 88 89 91 89 89 88 83 87 88 88 92 97
65 65 63 68 65 57 47 43 42 47 51 56 83 96 100 100 94 100 100 100 100 100 100 100 97 93 87 83 85 89 90 90 89 92 88 90 85 80 86 86 86 87 90 95
66 86 88 77 68 68 56 50 50 58 85 100 100 100 100 100 99 100 100 100 100 98 100 94 93 89 92 91 89 90 91 92 92 90 88 90 95 88 92 95 93 96 91 93
75 79 88 80 76 72 79 93 99 94 96 99 100 100 100 100 100 100 100 100 95 97 95 94 92 94 94 94 91 92 94 96 90 95 99 96 100 100 99 92 91 97 100 100
86 85 96 96 77 94 100 100 100 100 100 100 100 100 100 100 100 100 98 95 100 100 98 98 96 93 90 93 92 96 98 100 100 100 100 100 100 100 100 100 100 100 100 100
100 98 98 99 99 100 100 100 100 100 100 100 100 100 100 100 100 99 100 97 99 98 97 95 96 95 93 92 93 99 95 96 99 100 100 100 100 100 100 100 100 100 100 100
100 100 100 97 97 99 100 100 100 100 99 99 99 99 99 100 99 97 97 100 98 98 97 98 97 94 92 100 100 100 100 100 100 100 100 100 100 100 100 100 100 100 100 100
100 100 100 100 100 98 96 98 97 98 98 98 99 100 99 98 99 98 98 98 99 98 99 99 99 97 97 100 100 100 100 100 100 100 99 95 100 100 100 100 100 100 100 100
100 100 100 98 94 96 98 98 97 98 98 98 99 99 99 95 97 99 98 98 96 94 99 98 98 97 100 100 100 100 100 100 100 100 100 100 100 100 100 100 100 100 100 100
99 94 94 97 95 93 94 90 93 95 92 97 98 98 98 98 97 95 97 96 97 97 99 100 100 100 100 100 100 100 100 99 100 100 100 100 100 100 100 100 100 100 100 100
97 97 95 94 94 87 84 86 91 94 94 97 98 98 97 98 98 95 97 100 100 100 100 100 100 98 99 100 100 100 100 100 100 100 100 100 100 100 100 100 100 100 100 100

GFSNGP_sfc_rhum_237.txt.gz
RH
89 79 61 65 66 76 99 93 94 50 38 25 26 25 21 25 27 29 32 31 28 31 38 39 44 48 68 83 84 81 84 84 86 83 80 77 74 71 64 63 61 60 63 63
72 47 46 51 41 43 45 69 82 56 52 35 31 28 26 22 23 23 20 28 33 29 32 36 40 47 56 76 81 79 81 82 78 78 76 74 71 68 66 64 62 64 66 64
71 43 50 67 49 39 38 34 43 53 38 32 32 32 32 35 37 34 28 22 32 34 33 32 36 41 50 63 71 77 79 74 72 70 71 69 66 63 66 68 67 68 66 65
81 65 77 38 20 21 28 29 30 27 27 29 31 29 27 25 28 33 29 26 23 29 34 34 31 36 45 53 66 73 72 69 69 69 68 66 66 64 68 69 70 73 72 69
85 65 46 32 23 21 24 28 21 24 22 22 23 23 26 20 17 22 30 27 24 23 27 32 36 34 40 51 60 67 70 68 66 66 69 65 65 66 68 73 75 76 70 80
74 78 66 29 14 14 18 36 17 17 21 23 19 24 19 15 14 20 20 24 23 23 24 24 33 38 43 51 56 63 66 65 62 63 66 64 69 74 73 73 74 70 77 79
90 79 47 24 18 17 38 38 20 21 22 25 24 18 15 14 13 22 25 23 22 23 23 23 31 34 43 51 56 56 57 62 64 66 67 67 74 75 75 77 78 81 82 81
88 88 86 24 22 32 27 22 21 22 23 31 26 22 17 17 18 17 18 20 19 20 23 21 28 34 39 45 48 52 55 59 64 69 65 70 78 79 77 78 87 87 87 85
54 61 37 26 25 22 20 22 23 23 20 21 23 20 20 21 18 16 22 21 20 22 23 23 24 30 36 39 42 51 55 62 68 72 74 76 81 83 84 84 87 88 87 88
54 36 27 26 22 23 21 23 21 20 20 20 23 24 26 30 31 33 28 28 24 22 24 29 24 26 30 35 40 47 57 66 73 80 80 79 80 81 84 89 90 91 94 100
50 37 32 28 25 24 22 22 20 20 20 21 22 22 22 24 21 22 22 21 24 24 25 29 28 26 29 31 41 49 60 68 73 81 77 81 81 83 88 88 88 94 99 99
68 38 39 33 25 22 24 23 22 22 20 19 19 20 21 22 20 21 24 24 25 26 27 26 28 28 31 34 39 50 62 68 74 82 82 79 90 98 97 96 91 95 95 98
36 28 31 30 28 24 26 25 23 22 22 22 21 21 23 25 25 27 24 26 26 26 27 29 28 31 33 38 42 53 63 69 75 76 76 85 91 96 100 100 96 97 99 99
27 33 37 31 32 27 27 25 28 23 22 23 23 22 23 26 28 30 34 34 33 32 37 38 37 49 40 43 46 58 67 77 77 81 82 87 89 94 97 98 100 100 99 98
27 28 32 30 28 28 25 25 26 27 26 25 24 27 27 27 27 28 33 42 89 100 100 100 100 100 75 64 64 69 72 76 80 84 85 86 88 91 91 95 97 98 99 100
37 37 36 39 37 34 32 31 32 29 26 27 28 28 28 28 28 27 27 30 52 58 70 100 100 100 100 93 84 84 78 76 77 82 86 88 88 91 92 94 97 97 97 98
53 62 60 60 59 57 50 43 38 33 32 32 32 32 30 34 36 39 45 59 66 85 77 100 100 100 100 77 75 79 80 82 82 82 82 82 86 89 91 94 95 97 98 99
49 52 53 61 66 71 67 57 52 49 43 39 44 60 85 97 82 99 100 100 100 100 99 84 96 92 78 74 76 80 83 84 82 81 81 85 89 90 91 91 92 92 94 96
56 61 62 59 64 77 88 86 70 61 72 82 98 100 100 100 100 100 100 100 100 99 100 94 92 84 79 80 79 83 84 83 81 84 88 92 95 92 92 94 94 94 94 97
69 64 65 65 74 96 97 90 84 80 74 81 100 100 100 100 100 100 100 100 98 95 97 93 89 83 83 86 86 84 85 89 89 96 98 96 100 100 97 92 92 98 100 100
80 78 75 86 92 98 100 100 100 100 100 100 100 100 100 100 100 100 100 100 100 100 95 92 90 92 88 91 91 95 98 100 99 99 99 100 100 99 100 100 100 100 100 100
100 99 99 99 100 100 100 100 100 100 100 100 100 100 100 100 100 100 100 99 100 98 98 98 94 93 95 94 97 99 98 98 99 100 100 100 100 100 100 100 100 100 100 100
100 100 100 99 100 100 100 100 100 100 100 100 100 100 100 100 100 98 98 100 99 99 99 99 98 97 97 100 100 100 100 100 100 100 100 100 100 100 100 100 100 100 100 99
100 100 100 100 100 99 97 100 100 100 100 100 100 100 99 100 100 98 98 99 99 99 99 100 99 98 97 100 100 100 100 100 100 100 100 98 100 100 100 100 100 100 100 100
100 100 100 100 97 98 100 100 99 100 100 100 100 100 100 98 99 99 99 99 99 98 99 99 100 99 100 100 100 100 100 100 100 100 100 100 100 100 100 100 100 100 100 100
100 98 98 100 99 99 99 97 94 97 96 97 98 100 100 99 99 98 99 99 99 98 99 100 100 100 100 99 100 100 100 98 99 99 100 99 100 99 100 98 100 100 100 100
99 98 96 91 90 85 88 95 94 97 96 98 98 99 98 99 99 97 98 100 100 100 100 100 100 99 99 100 100 99 99 99 98 99 100 100 100 100 100 100 100 100 100 100

GFSNGP_sfc_rhum_240.txt.gz
RH
77 68 73 82 97 90 97 98 97 61 47 33 52 63 40 31 32 32 32 31 31 36 45 46 52 54 72 87 89 87 89 92 95 94 92 91 91 88 85 78 79 75 71 72
79 54 50 58 59 56 64 63 70 62 57 38 38 59 53 36 33 37 35 30 31 33 37 41 45 52 74 86 92 89 91 93 92 93 92 92 90 86 81 79 72 72 73 74
72 54 65 88 63 44 42 40 39 49 42 34 34 55 60 43 32 31 30 34 33 37 37 42 46 48 70 84 88 91 93 92 92 91 92 90 84 80 78 79 80 76 77 75
83 73 90 42 22 26 38 36 32 28 27 26 27 27 30 28 27 26 22 28 33 37 40 39 42 46 57 76 83 90 92 90 89 89 88 85 82 79 78 78 80 81 80 84
90 67 50 37 29 27 27 36 23 27 24 21 21 24 27 23 22 26 24 22 27 30 37 40 39 43 49 73 78 85 89 87 88 88 89 84 84 81 76 78 80 82 82 86
81 81 71 28 16 18 22 45 21 20 29 28 26 41 30 20 16 17 16 19 19 25 30 40 42 42 48 61 73 81 80 82 81 82 83 82 81 80 78 77 81 80 86 85
86 83 55 27 20 20 45 42 26 28 27 32 35 31 26 25 19 15 15 14 24 24 26 29 37 39 46 59 67 71 72 76 79 80 82 80 82 81 82 84 82 89 88 88
79 80 82 26 22 34 35 32 27 29 30 34 30 29 26 21 20 16 16 17 18 20 22 25 26 38 42 54 56 64 70 74 78 81 79 80 85 87 87 85 90 93 93 94
57 60 43 32 30 29 29 31 32 32 27 26 27 22 21 22 21 27 18 17 16 19 23 26 25 29 40 43 53 63 69 73 74 77 81 85 90 92 91 87 92 94 93 95
69 48 36 32 28 27 25 30 28 28 25 24 25 24 23 21 22 22 29 30 31 24 28 31 27 33 36 41 51 60 68 72 75 80 88 89 88 88 89 92 92 94 95 99
60 50 43 37 31 29 27 27 27 25 24 25 24 23 21 21 21 20 24 23 23 27 28 28 27 27 38 38 48 60 66 70 76 82 88 90 87 88 89 86 86 90 94 96
70 42 45 44 45 32 33 31 32 32 28 23 21 22 21 22 21 20 20 21 22 22 25 26 27 28 31 40 42 58 66 72 81 88 90 89 90 97 96 94 90 90 89 95
42 34 37 37 32 27 30 30 27 27 27 27 26 25 25 24 24 29 27 24 25 26 28 30 30 31 31 49 44 59 67 74 85 88 90 90 91 96 100 100 95 95 97 98
28 31 37 29 37 30 30 26 29 25 25 27 27 26 25 26 28 31 31 31 32 32 33 37 46 62 79 74 56 61 68 82 86 88 89 90 91 94 96 98 99 100 99 98
33 32 37 36 34 32 28 29 30 29 27 28 26 29 29 30 29 28 30 39 64 86 94 98 100 100 97 80 75 80 74 84 87 89 88 89 90 92 93 96 98 98 98 99
39 37 36 44 45 43 40 41 44 44 42 40 35 32 31 29 29 29 29 28 37 50 63 99 100 100 100 98 84 91 85 84 86 87 89 89 91 93 94 94 97 97 97 97
54 61 59 60 58 56 52 50 52 51 51 51 51 51 44 35 36 38 38 43 51 60 64 98 100 100 100 99 88 87 87 87 85 86 90 88 90 89 88 90 92 95 97 97
52 54 53 62 68 68 65 62 58 58 62 61 62 66 72 84 71 83 100 100 100 100 100 93 88 87 96 94 89 82 85 85 86 88 88 89 88 85 85 87 90 94 98 98
60 65 68 66 67 71 74 74 71 74 81 81 84 85 86 98 97 98 100 100 100 100 89 85 89 90 81 89 85 80 86 85 88 89 87 87 88 87 87 90 92 95 96 98
70 72 72 71 73 79 82 86 89 96 96 97 100 100 100 100 100 100 100 100 95 88 80 83 86 87 87 81 89 81 86 88 87 89 91 90 94 98 94 91 94 98 99 99
84 84 84 87 85 86 99 98 98 99 100 100 100 100 100 100 100 100 100 98 95 99 96 91 90 88 89 85 85 89 90 93 94 95 98 99 100 98 98 99 100 100 100 99
93 95 94 94 96 98 99 99 99 99 100 100 100 100 100 98 94 97 100 99 99 99 98 96 95 93 92 91 90 95 90 92 98 99 100 99 100 100 100 100 100 100 100 100
93 96 97 99 98 99 100 99 98 99 99 99 99 99 99 99 99 99 96 100 99 99 100 100 99 97 97 100 100 100 100 99 99 98 99 100 99 100 99 100 100 100 100 100
97 99 100 100 100 98 96 99 99 100 100 100 99 99 99 98 98 99 100 99 99 100 100 100 99 98 97 99 99 99 99 99 99 99 98 98 100 100 100 100 99 100 100 99
100 100 100 96 95 97 99 99 95 98 99 98 99 99 99 98 99 99 99 99 99 98 99 99 99 100 100 100 99 99 99 99 99 99 99 100 100 100 100 100 99 99 100 100
100 97 98 100 98 97 98 98 97 96 96 97 98 99 99 99 99 98 98 99 98 99 99 99 99 99 99 99 99 99 99 98 98 99 99 99 99 98 99 99 99 99 100 100
98 98 97 92 88 88 95 97 97 98 98 98 98 99 99 99 99 99 99 99 98 99 99 99 99 99 98 98 98 98 98 98 98 98 99 99 99 99 99 99 99 100 100 100

GFSNGP_sfc_rhum_243.txt.gz
RH
84 80 92 94 97 90 96 97 97 84 72 48 54 78 71 57 56 36 38 38 49 59 62 62 76 95 97 98 97 97 95 93 94 93 94 95 95 96 95 93 91 86 87 83
90 68 70 88 67 80 69 70 89 81 88 44 65 84 74 65 58 46 32 31 41 49 50 53 67 95 97 98 98 96 98 99 98 97 97 97 97 96 95 93 86 85 85 84
90 71 77 91 78 59 52 48 52 62 55 43 54 53 79 72 60 57 32 28 30 43 54 55 61 88 96 97 96 96 97 98 98 97 98 97 96 94 93 89 86 85 86 83
96 84 96 54 31 38 50 44 44 42 40 34 53 45 52 69 68 57 47 45 32 42 48 58 60 80 95 96 97 97 97 98 98 97 97 95 94 92 90 88 85 87 89 88
96 93 65 48 34 31 38 48 35 36 33 30 29 32 31 50 66 59 58 44 39 30 43 46 58 83 93 96 96 97 98 97 96 96 96 96 95 92 87 86 88 89 89 89
95 98 90 51 27 26 32 61 30 29 35 35 31 63 46 34 34 29 33 27 28 21 33 49 50 80 91 95 95 97 96 95 94 94 94 95 92 91 88 86 89 90 89 86
90 94 78 43 30 27 54 57 38 32 30 38 46 44 32 28 28 22 20 18 23 22 31 33 46 56 86 92 93 90 92 92 94 93 92 90 91 89 89 92 92 92 90 90
93 97 93 38 39 50 48 43 39 40 40 42 41 38 34 26 24 22 21 22 20 22 30 26 40 51 70 84 81 88 91 91 92 93 92 90 91 91 90 91 93 95 94 96
78 81 58 53 46 38 38 41 45 45 41 36 36 33 30 28 28 26 28 33 27 34 34 29 36 46 56 70 78 84 89 92 91 90 90 90 92 94 95 93 95 96 94 96
100 81 62 63 49 42 36 37 36 37 37 37 37 34 33 28 24 27 27 29 34 36 38 41 38 33 37 59 70 80 87 90 91 92 92 90 92 93 94 95 96 96 95 96
73 60 62 60 55 50 48 47 42 41 41 40 38 34 33 32 26 27 25 25 28 32 34 30 30 34 36 47 70 79 84 88 90 91 90 94 94 94 93 90 91 93 93 91
74 53 58 55 54 52 52 49 44 41 42 39 38 36 34 36 33 30 31 27 27 29 32 30 30 33 38 53 67 75 85 89 90 91 92 94 97 100 99 98 97 93 92 90
58 48 54 54 47 43 46 46 41 42 41 39 37 36 36 36 39 41 37 35 34 32 29 31 40 41 70 72 64 78 82 84 89 92 93 96 96 97 100 100 96 96 95 94
46 50 59 54 58 49 48 42 43 40 40 40 40 37 35 37 40 45 43 40 44 43 45 45 47 50 70 72 69 71 83 91 89 92 93 95 96 96 97 98 99 100 96 94
49 49 53 53 53 52 49 50 52 51 48 47 45 49 49 49 42 37 44 55 60 68 70 72 68 74 77 76 77 73 91 95 92 93 93 94 93 94 95 95 96 98 99 99
57 60 59 64 62 60 59 58 60 58 56 56 56 54 52 52 52 53 48 40 57 65 66 74 76 74 95 97 86 89 92 96 98 95 94 95 95 95 95 95 97 97 97 97
76 80 76 78 77 76 72 67 67 65 63 64 64 61 59 60 62 62 60 64 62 62 62 67 74 77 99 99 92 95 96 96 94 96 96 94 95 94 94 96 97 97 97 97
74 75 75 73 75 77 75 73 72 69 70 68 70 71 78 79 79 77 78 80 95 99 98 84 80 96 99 96 93 95 95 96 94 93 93 95 95 92 93 94 95 96 97 98
66 70 72 68 72 77 80 79 78 82 86 85 88 89 84 83 80 78 79 95 98 98 86 94 95 94 93 92 94 96 95 96 95 92 93 92 95 92 92 93 94 93 95 97
74 74 76 77 77 86 90 83 85 89 90 97 97 98 98 98 99 98 95 98 89 91 89 87 92 92 91 90 95 94 93 94 94 93 96 95 96 98 94 90 92 95 97 98
88 87 89 90 92 92 92 93 97 94 90 94 98 98 98 98 100 100 99 98 98 93 92 90 90 92 93 93 94 91 92 94 98 96 98 99 100 96 95 95 96 98 99 98
94 94 94 94 93 93 94 97 98 97 95 94 94 98 98 98 99 98 97 97 92 92 93 87 86 88 91 92 92 93 93 92 95 97 100 99 99 100 99 99 99 99 99 99
92 92 96 96 97 97 92 92 93 97 97 96 97 97 98 98 99 99 97 93 97 94 94 93 89 87 90 98 98 100 99 100 99 99 99 100 100 100 99 98 98 98 99 98
98 92 94 96 95 92 94 93 95 94 94 97 98 99 99 98 97 98 98 97 98 98 98 99 99 97 97 100 100 100 100 100 100 100 99 98 100 100 99 98 98 99 99 99
98 98 97 96 93 94 96 93 94 93 94 92 95 96 98 98 99 99 99 99 99 99 99 99 99 99 100 100 100 100 100 100 100 100 99 99 99 98 98 98 98 99 100 99
96 99 98 98 91 90 97 96 97 97 96 95 93 97 96 98 98 98 99 99 99 99 99 99 99 99 99 98 99 99 98 98 98 98 98 98 98 98 98 98 98 99 99 99
93 99 99 98 93 91 96 98 98 97 97 97 97 97 97 97 97 98 98 99 99 98 98 99 99 98 98 98 98 98 98 98 98 98 99 99 98 99 98 98 99 99 99 98

GFSNGP_sfc_rhum_246.txt.gz
RH
90 86 90 90 94 88 97 97 98 73 81 66 62 87 82 72 66 61 56 43 42 65 79 95 96 97 95 95 90 86 79 85 83 86 85 89 91 92 92 93 93 94 97 95
92 74 70 91 78 79 79 90 87 78 74 57 53 58 73 79 78 77 68 58 48 43 60 92 98 99 99 99 99 97 98 96 92 91 92 94 94 95 95 95 97 96 96 94
95 76 76 89 74 66 61 64 64 79 58 70 63 67 62 76 81 83 76 66 55 50 43 70 94 96 98 99 98 99 99 99 99 98 96 96 95 97 98 98 98 97 96 94
96 87 94 53 38 38 54 59 48 50 69 71 57 56 50 80 78 77 80 73 66 43 35 50 84 95 98 97 97 99 99 99 99 98 98 98 98 98 98 98 97 96 95 94
98 96 67 50 39 32 47 51 45 45 49 54 48 56 54 70 73 77 75 82 69 58 38 31 66 96 97 97 97 98 99 99 99 98 98 98 98 98 97 97 96 96 92 92
98 99 99 57 37 30 34 57 40 40 40 40 42 63 74 54 69 75 74 71 78 63 51 30 37 95 95 97 97 98 98 98 97 97 98 98 98 97 96 93 94 95 96 93
94 95 80 54 38 40 59 57 44 40 36 45 46 50 44 35 42 52 63 62 68 61 60 49 34 87 94 96 96 95 97 98 97 96 96 95 96 96 96 98 97 96 96 95
96 96 92 48 50 62 51 45 41 44 42 42 40 41 41 34 28 26 27 32 43 48 57 49 38 56 84 94 92 96 96 98 98 97 97 96 95 96 96 96 97 98 98 99
86 86 76 73 72 62 60 50 43 42 40 40 40 35 32 30 28 28 26 27 30 35 36 40 37 34 45 55 91 96 97 98 98 97 96 95 96 97 98 96 97 98 97 98
94 79 74 81 66 64 54 56 44 44 43 44 45 42 40 36 32 26 27 29 29 30 34 35 33 31 34 42 81 94 96 98 98 98 98 96 96 96 97 97 98 98 98 98
74 60 58 56 60 57 57 54 50 47 44 42 44 44 40 36 34 33 32 28 28 32 32 32 30 29 34 49 82 93 95 97 97 96 96 97 96 96 96 93 92 96 96 96
87 62 66 55 52 57 54 53 50 48 46 42 42 43 41 40 38 36 35 34 35 34 35 33 32 31 46 61 83 91 96 98 97 97 96 97 98 100 99 99 96 95 92 93
72 54 53 59 60 53 57 58 58 53 52 50 48 48 49 48 46 45 41 40 40 39 38 40 38 47 64 62 76 89 94 96 97 98 96 98 98 98 100 100 98 98 96 95
48 57 62 59 67 63 62 57 58 55 54 54 54 52 55 56 53 57 58 54 51 48 48 48 48 52 65 72 65 74 90 100 96 96 96 98 98 98 98 98 99 99 97 95
62 63 65 65 66 66 64 66 68 67 63 62 58 61 60 61 59 56 54 62 70 76 75 70 66 67 70 80 73 73 88 95 96 97 98 98 98 98 98 98 98 98 98 97
70 73 72 77 78 76 74 73 76 74 70 69 68 66 64 63 63 61 59 57 67 68 73 80 75 68 82 80 80 84 86 94 94 95 98 100 99 98 98 98 98 98 97 97
88 89 87 87 83 80 78 75 77 76 75 75 74 73 73 73 73 71 67 74 81 79 75 79 74 78 78 86 83 87 90 95 95 96 97 97 98 98 97 97 97 97 98 95
76 80 74 72 73 74 75 79 80 81 84 81 79 82 84 84 84 85 83 79 79 81 80 78 80 78 80 84 86 89 90 92 96 96 96 97 96 96 97 97 97 97 96 96
70 72 76 74 76 77 85 88 81 82 83 84 86 90 90 95 92 88 91 93 88 85 79 82 88 91 86 90 91 91 92 95 96 96 95 95 96 94 95 96 96 96 96 97
72 76 81 86 83 91 95 90 88 83 82 83 85 85 86 86 90 97 97 97 96 92 83 86 91 92 91 93 96 94 93 94 95 96 99 97 98 100 97 95 94 96 98 96
86 82 91 93 87 83 91 92 95 94 88 86 93 95 93 88 88 92 97 97 97 98 94 92 94 93 96 96 96 96 95 96 98 98 99 99 100 98 99 98 99 99 99 96
91 95 95 94 93 88 88 90 92 87 88 89 90 92 92 88 88 89 90 94 90 90 94 96 94 92 93 93 94 94 92 92 93 96 99 99 100 100 100 99 100 100 98 98
89 93 96 94 96 94 93 93 89 94 96 94 96 96 96 96 97 98 95 84 90 89 93 88 87 88 85 91 89 96 98 96 93 93 98 100 100 100 100 100 99 98 99 99
88 92 96 86 93 88 93 90 90 94 94 95 94 94 98 97 94 92 98 98 98 98 97 93 92 91 89 96 93 96 97 98 98 99 99 98 100 100 100 100 98 98 99 98
87 96 98 98 95 94 92 94 92 93 92 93 91 91 95 97 99 98 98 98 98 98 98 98 99 98 99 99 99 100 100 100 100 100 100 100 100 100 100 99 98 98 98 98
94 97 99 97 98 97 92 94 97 97 95 94 93 92 94 96 98 98 98 98 98 98 98 99 99 99 99 100 100 100 100 98 99 99 99 100 100 99 99 97 97 97 98 98
94 94 98 98 98 95 94 96 98 97 97 96 97 92 95 96 96 96 97 98 98 99 99 99 98 99 99 99 99 99 99 99 98 98 99 99 98 98 98 98 99 98 98 98

GFSNGP_sfc_rhum_249.txt.gz
RH
94 86 82 92 94 90 97 94 98 82 84 68 66 81 81 77 78 78 72 65 60 55 49 50 97 96 73 51 56 68 71 78 82 84 86 86 87 85 88 88 90 89 93 93
90 71 78 76 55 55 73 84 93 81 77 72 66 58 65 68 75 79 78 75 67 62 53 43 54 92 94 96 88 80 79 82 82 86 89 88 89 90 90 91 92 94 93 97
88 78 75 80 63 62 69 72 84 90 78 68 68 67 61 65 76 79 79 79 76 68 64 50 44 94 98 97 98 90 89 94 87 88 91 92 92 93 94 95 95 96 97 98
93 87 96 53 38 37 45 46 60 58 62 64 75 68 59 59 78 82 83 82 75 69 62 62 48 72 98 98 99 95 94 98 97 94 93 94 96 95 95 96 98 98 98 98
98 98 70 59 42 44 47 48 49 58 55 55 62 58 57 50 72 73 80 90 80 71 68 60 65 56 97 97 98 98 99 99 99 98 98 98 98 98 97 98 98 98 98 98
99 100 99 57 42 38 46 72 43 42 50 55 56 87 69 45 71 76 70 71 85 82 67 71 66 64 94 96 97 99 99 96 99 99 99 98 98 98 98 98 98 98 99 97
94 98 83 57 70 54 65 87 66 46 43 44 57 56 47 49 54 73 75 68 72 83 86 77 74 64 58 93 96 96 98 99 99 99 99 99 99 99 99 99 99 99 98 99
96 98 94 72 76 93 92 69 66 54 45 50 47 44 41 38 37 62 70 69 69 75 80 82 82 70 49 47 60 94 97 99 99 98 99 98 98 99 99 98 98 99 99 99
96 91 68 64 60 61 67 77 71 58 49 50 47 44 42 41 37 32 30 33 60 61 73 81 82 79 64 57 56 95 98 99 99 99 98 98 98 99 99 98 98 99 98 99
91 63 70 70 50 57 69 63 60 58 55 46 49 49 46 41 37 36 33 32 31 38 50 53 53 42 60 57 60 92 97 99 99 99 99 99 98 98 98 98 99 99 99 100
71 56 64 69 61 60 52 53 55 54 51 52 51 49 46 45 43 40 39 35 35 35 37 38 39 41 36 44 79 91 96 98 99 99 99 99 98 98 98 96 96 98 98 98
75 59 75 63 50 54 60 62 63 61 57 56 53 54 54 53 51 48 50 47 45 44 41 37 34 38 36 56 67 86 96 99 99 99 100 100 100 100 100 99 97 97 96 97
62 51 60 54 64 59 61 64 65 64 63 63 60 59 60 60 58 60 53 52 52 53 56 54 47 40 40 61 74 88 94 97 99 100 99 99 100 100 100 99 98 98 96 97
51 54 64 64 70 70 71 70 69 67 67 67 67 64 64 64 62 65 65 63 63 62 61 60 63 63 57 75 70 86 89 100 98 99 99 100 99 100 99 99 100 100 98 97
72 71 77 74 73 75 74 74 77 77 75 74 69 72 71 71 69 66 64 65 70 76 77 79 75 73 75 71 84 78 88 97 98 99 99 99 99 99 99 99 99 98 99 99
84 94 89 82 81 80 79 81 85 84 79 78 78 77 76 77 78 76 72 70 75 76 71 76 78 74 85 78 80 85 84 90 97 98 99 99 99 99 99 98 98 98 98 98
88 87 86 85 83 81 74 69 84 84 85 83 77 74 76 76 77 76 74 75 80 82 79 78 80 82 83 85 83 90 88 83 95 97 98 98 98 98 98 98 98 98 98 98
80 80 72 77 74 76 76 78 89 79 79 77 80 85 88 89 90 88 86 84 87 89 86 83 80 76 75 75 76 84 91 89 90 94 95 98 98 98 98 98 98 98 98 98
67 69 82 78 85 86 91 89 84 84 87 88 91 91 89 89 85 78 80 82 87 93 88 87 82 81 80 79 85 88 89 89 93 95 95 97 99 98 98 98 98 98 97 97
76 75 74 83 86 81 88 85 84 82 80 87 91 89 89 88 87 87 85 92 88 84 83 93 94 92 85 86 92 91 91 90 86 88 96 98 98 100 98 98 97 98 99 98
83 86 90 89 90 86 90 90 91 91 84 88 92 90 91 90 90 82 89 87 81 80 80 79 89 97 94 90 93 97 95 95 94 94 98 99 100 99 100 100 99 99 100 99
91 93 93 94 94 95 86 90 93 92 92 88 86 88 90 90 87 87 86 91 86 88 87 87 84 86 96 96 95 97 97 98 96 97 98 99 100 100 100 100 100 100 100 100
86 86 90 96 96 96 92 93 86 87 92 95 94 95 96 94 90 96 95 82 89 90 97 97 96 92 92 94 96 98 98 97 96 97 99 100 100 100 100 99 99 100 100 99
91 85 88 96 94 95 91 87 90 88 95 92 90 93 96 96 92 87 89 92 96 98 97 98 98 98 94 94 93 94 94 97 99 99 96 99 100 100 100 100 99 99 100 98
95 92 94 98 97 92 95 93 93 89 91 89 88 91 92 92 98 95 94 97 97 98 98 97 98 98 98 98 96 95 95 94 95 99 99 99 100 100 100 100 99 100 100 98
98 98 96 98 98 97 96 96 96 94 97 92 88 92 92 92 92 93 94 96 97 98 98 98 98 98 99 98 98 98 98 94 92 94 96 97 99 99 100 99 99 100 100 98
94 95 94 97 98 93 95 97 98 96 95 97 96 92 94 94 94 94 93 95 96 97 98 98 98 99 99 99 99 99 98 98 98 96 94 99 100 100 100 100 100 100 100 98